Погода Нижний Чир

Погода Нижний Чир : погода сейчас, прогноз погоды и архив. Всё, что Вы хотите узнать о погоде Нижний Чир!

Хотите узнать прогноз погоды Нижний Чир? Тогда Вам сюда: Погода Нижний Чир

Поиск расширенной информации на нашем сайте:

Другие новости

Новости СМИ2

Главная страница сайта

Новости сайта

03.07.2017

Напоминаем, что на нашем специализированном сайте Метеоцентр.Азия вы можете получить высокодетализированные автоматические прогнозы погоды по пунктам России, СНГ и мира в авиационном формате (включающие направление и скорость ветра, видимость, явления погоды, количество и форму облачности, нижнюю и верхнюю границу облачности).


Погода Нижний Чир - сегодня

Время (UTC), дата Ветер
(°,м/с) 
Видим.   Явления Облачность Т
(°С)
Тd
(°С)
f(%) Тe
(°С)
Pmin
(гПа)
dP
(гПа)
Po
(мм)
O2
(г/м3)
Тmin Tmax R s Состояние
почвы
21 18.05.18 260 (З) 8-10{14}  20000 м    10/10 600 м 
[Sc]
+22.2 +8.7 42 +22  1013.3  0.5  754  280           
00 19.05.18 210 (ЮЗ) 20000 м    10/10 600 м 
[Sc]
+19.1 +11.3 61 +22  1013.7  0.3  754  282           
03 19.05.18 220 (ЮЗ) 20000 м    4/0 средняя, верхняя 
[Ac trans|Ci fib]
+18.2 +13.1 72 +24  1014.4  0.7  755  283  +16.6        сухая 
06 19.05.18 250 (З) 20000 м    3/0 верхняя 
[Ci fib]
+23.6 +10.7 44 +26  1013.8  -0.5  754  278           
09 19.05.18 170 (Ю) 6{11}  20000 м    6/4 1000 м верхняя 
[Cu med, cong|Ci]
+25.6 +11.1 40 +28  1014  0.3  755  276           
12 19.05.18 170 (Ю) 7{12}  20000 м    8/4 1000 м верхняя 
[Cu med, cong|Ci fib]
+26.8 +9 33 +27  1013  -0.9  754  275           
15 19.05.18 240 (ЮЗ) 6{12}  20000 м    9/6 600 м верхняя 
[Cu med, cong|Ci sp]
+26.4 +7.8 31 +26  1012.5  -0.5  754  276    +27.8       
18 19.05.18 240 (ЮЗ) 20000 м    8/3 600 м верхняя 
[Sc|Ci fib]
+22.3 +8.1 40 +22  1013.7  754  280           
21 19.05.18 270 (З) 20000 м    3/0 верхняя 
[Ci fib]
+19 +8.7 51 +19  1013.9  0.1  754  283           
00 20.05.18 300 (СЗ) 20000 м    ясно 
+16.1 +8.5 61 +16  1014.1  0.2  755  286           
03 20.05.18 тихо ()   20000 м    10/10 600 м 
[Sc]
+18.1 +11.8 67 +22  1014.7  0.6  755  283  +15        сухая 
06 20.05.18 160 (Ю) 20000 м    10/8 600 м средняя, верхняя 
[Sc|Ac trans|Ci fib]
+21.9 +14.2 62 +29  1015.9  1.3  756  279           
09 20.05.18 200 (Ю) 20000 м    9/6 600 м средняя, верхняя 
[Cu med, cong|Ac trans|Ci fib]
+27 +8.2 30 +27  1014.9  -0.8  755  276           
12 20.05.18 090 (В) 20000 м    8/4 1000 м средняя, верхняя 
[Cu med, cong|Ac trans|Ci fib]
+28.2 +3.7 21 +28  1014.1  -0.8  755  275           
15 20.05.18 230 (ЮЗ) 20000 м    3/3 1000 м верхняя 
[Cu med, cong|Ci fib]
+28.8 +4.2 21 +29  1013  -1.1  754  274    +30       
18 20.05.18 260 (З) 20000 м    9/5 600 м средняя, верхняя 
[Sc|Ac trans|Cc]
+21.7 +1.7 27 +22  1013.8  0.6  754  281           
21 20.05.18 250 (З) 20000 м    9/8 600 м средняя 
[Sc|Ac trans]
+21.7 +7.2 39 +22  1013.4  -0.4  754  280           
00 21.05.18 320 (СЗ) 20000 м    9/9 600 м 
[Sc]
+18.4 +7.9 50 +19  1013.7  0.2  754  283           
03 21.05.18 300 (СЗ) 20000 м  в посл. час гроза{ливн. осадки}  10/10 600 м 
[Sc diur, vesp]
+17.7 +14.8 83 +26  1014.8  1.1  755  283  +16.5       
06 21.05.18 020 (С) 20000 м  {гроза, ливн. осадки}  9/8 600 м верхняя 
[Sc|Ci fib]
+20.8 +15.1 70 +29  1015  0.3  755  280           
09 21.05.18 060 (СВ) 20000 м    10/8 600 м верхняя 
[Sc|Ci fib]
+23.9 +15.1 58 +33  1014.8  -0.1  755  277           
12 21.05.18 260 (З) 6{12}  20000 м    10/10 600 м 
[Sc]
+21.9 +14.2 62 +29  1016.7  1.8  757  279           
15 21.05.18 270 (З) 7{12}  20000 м    10/10 600 м 
[Sc]
+19.8 +14.9 73 +28  1016.7  757  281    +26.2       
18 21.05.18 330 (СЗ) 6{12}  20000 м    10/10 600 м 
[Sc]
+19.8 +13.9 69 +27  1017.3  0.6  757  282           
21 21.05.18 330 (СЗ) 20000 м    8/3 600 м верхняя 
[Sc|Ci fib]
+19.7 +14.9 74 +29  1017  -0.3  757  281           
Время (UTC), дата Ветер
(°,м/с) 
Видим.   Явления Облачность Т
(°С)
Тd
(°С)
f(%) Тe
(°С)
Pmin
(гПа)
dP
(гПа)
Po
(мм)
O2
(г/м3)
Тmin Tmax R s Состояние
почвы

Для получения пояснительной информации подведите курсор к названию столбца.

ПОГОДА Нижний Чир - архив

Всё, что Вы хотите узнать о погоде Нижний Чир - удобно и подробно!

Выберите нужную дату (начиная с 1 января 2015* года) и нажмите кнопку "Найти".
Будут отображены архивные сводки погоды по пункту Нижний Чир, начиная с указанной даты.


Отображать данные в формате CSV (для использования в таблицах Excel)


Внимание! Наш архив погоды предназначен исключительно для личного некоммерческого использования в познавательных целях. Если Вам необходимы официальные справки о состоянии погоды (для производственных, юридических, коммерческих и т.п. целей), обращайтесь в органы Росгидромета.

*Примечание: данная дата относится к архиву по метеостанциям СССР (Россия, СНГ, Балтия).
Архив по метеостанциям Зарубежной Европы и Азии (кроме Китая) хранится 10 дней, по другим регионам земного шара (Китай, Африка, Америка, Австралия, Океания) - 1 день.

Нижний Чир - район местоположения метеостанции


Название, широта, долгота, высота метеостанции:
Нижний Чир 48.3°ш. 43.1°д. 68 м над ур. моря [Российская Федерация]

Дополнительная информация

В oтличие oт бoльшинства пoгoдных сайтoв мы публикуем пoдрoбную метеoинфoрмацию в детальнoм прoфессиoнальнoм фoрмате.

Характеристики температуры и влажнoсти вoздуха измеряются на высoте 2 м в тени вдали oт зданий и деревьев.
Скoрoсть ветра измеряется на высoте 10 м (на урoвне рoста челoвека скoрoсть ветра ниже в 1.5-2 раза). Если метеoстанция нахoдится в гoрoде или в лесу, тo скoрoсть ветра занижена на 2-4 м/с пo сравнению с oткрытым местoм. Скoрoсть ветра над акватoриями крупных рек и oзёр, а также на вершинах хoлмoв на 2-5 м/с выше, чем в oбычных услoвиях.
Атмoсфернoе давление в разных тoчках местнoсти мoжет значительнo oтличаться oт давления на метеoстанции, в зависимoсти oт услoвий рельефа (при пoдъёме на 10 м давление пoнижается примернo на 1 мм рт.ст.).